Location: Aufkirchen
(47.9603°N, 11.3653°E)
Time: 12:16:49
(UTC+01:00)

deb Explorer IX - Pass Details

Date: 28 November 2020
Orbit: 536 x 1104 km, 38.8° (Epoch: 19 January)

Event Time Altitude Azimuth Distance (km) Brightness Sun altitude
Rises 19:39:21 0° 256° (WSW) 3,278 ? -31.8°
Reaches altitude 10° 19:42:18 10° 245° (WSW) 2,240 ? -32.3°
Enters shadow 19:44:54 22° 220° (SW) 1,496 ? -32.7°
